TimeCDT,TemperatureF,Dew PointF,Humidity,Sea Level PressureIn,VisibilityMPH,Wind Direction,Wind SpeedMPH,Gust SpeedMPH,PrecipitationIn,Events,Conditions,WindDirDegrees,DateUTC
12:15 AM,35.6,15.8,44,30.08,10.0,ENE,6.9,-,N/A,,Clear,70,2013-03-21 05:15:00
12:35 AM,33.8,15.8,48,30.08,10.0,East,3.5,-,N/A,,Clear,90,2013-03-21 05:35:00
1:15 AM,33.8,15.8,48,30.06,10.0,East,5.8,-,N/A,,Clear,80,2013-03-21 06:15:00
1:35 AM,33.8,17.6,52,30.05,10.0,East,4.6,-,N/A,,Clear,100,2013-03-21 06:35:00
1:55 AM,33.8,17.6,52,30.05,10.0,East,6.9,-,N/A,,Clear,100,2013-03-21 06:55:00
2:15 AM,33.8,17.6,52,30.05,10.0,ESE,6.9,-,N/A,,Clear,120,2013-03-21 07:15:00
2:35 AM,33.8,17.6,52,30.05,10.0,SE,8.1,-,N/A,,Partly Cloudy,130,2013-03-21 07:35:00
2:55 AM,33.8,15.8,48,30.04,10.0,East,6.9,-,N/A,,Clear,100,2013-03-21 07:55:00
3:15 AM,33.8,15.8,48,30.02,10.0,East,10.4,-,N/A,,Clear,90,2013-03-21 08:15:00
3:35 AM,33.8,14.0,44,30.01,10.0,East,9.2,-,N/A,,Partly Cloudy,90,2013-03-21 08:35:00
3:55 AM,33.8,14.0,44,30.01,10.0,East,8.1,-,N/A,,Partly Cloudy,100,2013-03-21 08:55:00
4:15 AM,33.8,15.8,48,30.00,10.0,East,8.1,-,N/A,,Clear,90,2013-03-21 09:15:00
4:35 AM,33.8,17.6,52,30.00,10.0,East,8.1,-,N/A,,Scattered Clouds,90,2013-03-21 09:35:00
4:55 AM,33.8,15.8,48,30.00,10.0,East,6.9,-,N/A,,Partly Cloudy,90,2013-03-21 09:55:00
5:15 AM,33.8,17.6,52,29.99,10.0,East,6.9,-,N/A,,Partly Cloudy,90,2013-03-21 10:15:00
5:35 AM,33.8,17.6,52,29.99,10.0,East,9.2,-,N/A,,Scattered Clouds,100,2013-03-21 10:35:00
5:55 AM,33.8,17.6,52,29.99,10.0,East,8.1,-,N/A,,Mostly Cloudy,90,2013-03-21 10:55:00
6:15 AM,33.8,15.8,48,29.99,10.0,East,8.1,-,N/A,,Mostly Cloudy,90,2013-03-21 11:15:00
6:35 AM,33.8,15.8,48,30.00,10.0,East,9.2,-,N/A,,Mostly Cloudy,90,2013-03-21 11:35:00
6:55 AM,35.6,14.0,41,30.00,10.0,East,8.1,-,N/A,,Scattered Clouds,80,2013-03-21 11:55:00
7:15 AM,35.6,12.2,38,29.98,10.0,East,12.7,18.4,N/A,,Partly Cloudy,90,2013-03-21 12:15:00
7:35 AM,35.6,10.4,35,29.98,10.0,East,10.4,18.4,N/A,,Scattered Clouds,100,2013-03-21 12:35:00
7:55 AM,35.6,12.2,38,29.98,10.0,East,11.5,-,N/A,,Mostly Cloudy,100,2013-03-21 12:55:00
8:15 AM,35.6,10.4,35,29.98,10.0,ESE,11.5,-,N/A,,Scattered Clouds,110,2013-03-21 13:15:00
8:35 AM,35.6,10.4,35,29.98,10.0,East,13.8,-,N/A,,Scattered Clouds,90,2013-03-21 13:35:00
8:55 AM,35.6,10.4,35,29.98,10.0,East,16.1,-,N/A,,Mostly Cloudy,90,2013-03-21 13:55:00
9:15 AM,37.4,10.4,33,29.97,10.0,East,16.1,-,N/A,,Mostly Cloudy,100,2013-03-21 14:15:00
9:35 AM,37.4,8.6,30,29.96,10.0,East,15.0,-,N/A,,Mostly Cloudy,100,2013-03-21 14:35:00
9:55 AM,39.2,10.4,31,29.96,10.0,ESE,9.2,-,N/A,,Scattered Clouds,110,2013-03-21 14:55:00
10:15 AM,39.2,8.6,28,29.96,10.0,East,11.5,-,N/A,,Mostly Cloudy,90,2013-03-21 15:15:00
10:35 AM,39.2,10.4,31,29.96,10.0,East,8.1,-,N/A,,Overcast,80,2013-03-21 15:35:00
10:55 AM,41.0,12.2,31,29.95,10.0,East,9.2,-,N/A,,Mostly Cloudy,90,2013-03-21 15:55:00
11:35 AM,42.8,10.4,27,29.94,10.0,ESE,10.4,-,N/A,,Overcast,110,2013-03-21 16:35:00
11:55 AM,42.8,8.6,25,29.95,10.0,SSE,9.2,-,N/A,,Overcast,160,2013-03-21 16:55:00
12:15 PM,42.8,10.4,27,29.92,10.0,SE,11.5,-,N/A,,Overcast,130,2013-03-21 17:15:00
12:35 PM,42.8,14.0,31,29.92,10.0,SSE,12.7,19.6,N/A,,Overcast,150,2013-03-21 17:35:00
12:55 PM,41.0,21.2,45,29.91,10.0,SE,11.5,-,N/A,,Overcast,130,2013-03-21 17:55:00
1:15 PM,39.2,24.8,56,29.91,10.0,SE,12.7,20.7,N/A,,Overcast,130,2013-03-21 18:15:00
1:35 PM,37.4,28.4,70,29.90,7.0,SE,12.7,18.4,N/A,,Overcast,130,2013-03-21 18:35:00
1:55 PM,35.6,28.4,75,29.89,2.5,ESE,11.5,-,N/A,,Mostly Cloudy,120,2013-03-21 18:55:00
2:15 PM,33.8,30.2,87,29.87,2.5,ESE,15.0,19.6,0.01,,Mostly Cloudy,120,2013-03-21 19:15:00
2:35 PM,33.8,30.2,87,29.85,2.5,ESE,15.0,-,0.02,,Overcast,120,2013-03-21 19:35:00
2:55 PM,33.8,30.2,87,29.84,2.0,East,12.7,-,0.03,,Overcast,100,2013-03-21 19:55:00
3:15 PM,33.8,30.2,87,29.81,2.5,ESE,16.1,21.9,0.02,,Mostly Cloudy,110,2013-03-21 20:15:00
3:35 PM,33.8,30.2,87,29.81,8.0,ESE,16.1,21.9,0.03,,Overcast,110,2013-03-21 20:35:00
3:55 PM,33.8,30.2,87,29.80,5.0,East,15.0,19.6,0.04,,Overcast,100,2013-03-21 20:55:00
4:15 PM,35.6,30.2,81,29.80,5.0,East,12.7,18.4,0.02,,Overcast,100,2013-03-21 21:15:00
4:35 PM,35.6,30.2,81,29.79,10.0,East,12.7,20.7,0.02,,Overcast,100,2013-03-21 21:35:00
4:55 PM,35.6,30.2,81,29.79,10.0,ESE,10.4,-,0.02,,Overcast,110,2013-03-21 21:55:00
5:15 PM,35.6,30.2,81,29.78,10.0,ESE,12.7,17.3,N/A,,Overcast,110,2013-03-21 22:15:00
5:35 PM,35.6,30.2,81,29.78,10.0,East,12.7,18.4,N/A,,Overcast,100,2013-03-21 22:35:00
5:55 PM,35.6,30.2,81,29.78,10.0,East,12.7,18.4,N/A,,Overcast,90,2013-03-21 22:55:00
6:15 PM,35.6,30.2,81,29.78,10.0,East,15.0,20.7,N/A,,Overcast,100,2013-03-21 23:15:00
6:35 PM,35.6,30.2,81,29.79,10.0,ESE,12.7,17.3,N/A,,Overcast,110,2013-03-21 23:35:00
6:55 PM,35.6,30.2,81,29.80,10.0,East,9.2,-,N/A,,Overcast,100,2013-03-21 23:55:00
7:15 PM,35.6,30.2,81,29.79,10.0,East,10.4,-,N/A,,Overcast,100,2013-03-22 00:15:00
7:35 PM,35.6,30.2,81,29.80,10.0,ESE,12.7,-,N/A,,Overcast,110,2013-03-22 00:35:00
7:55 PM,35.6,30.2,81,29.81,10.0,East,9.2,17.3,0.02,,Overcast,100,2013-03-22 00:55:00
8:15 PM,35.6,30.2,81,29.80,7.0,East,12.7,18.4,0.02,,Overcast,100,2013-03-22 01:15:00
8:35 PM,35.6,30.2,81,29.80,7.0,East,13.8,19.6,0.03,,Overcast,90,2013-03-22 01:35:00
8:55 PM,35.6,30.2,81,29.79,10.0,East,15.0,20.7,0.04,,Overcast,90,2013-03-22 01:55:00
9:15 PM,33.8,30.2,87,29.80,10.0,East,13.8,19.6,N/A,,Overcast,100,2013-03-22 02:15:00
9:35 PM,33.8,30.2,87,29.80,10.0,East,12.7,-,N/A,,Overcast,100,2013-03-22 02:35:00
9:55 PM,33.8,30.2,87,29.81,10.0,East,15.0,20.7,N/A,,Overcast,100,2013-03-22 02:55:00
10:15 PM,33.8,30.2,87,29.81,10.0,East,11.5,19.6,0.01,,Overcast,100,2013-03-22 03:15:00
10:35 PM,33.8,30.2,87,29.81,10.0,East,13.8,-,0.01,,Overcast,100,2013-03-22 03:35:00
10:55 PM,33.8,30.2,87,29.82,9.0,East,11.5,-,0.02,,Overcast,90,2013-03-22 03:55:00
11:15 PM,33.8,30.2,87,29.82,10.0,East,13.8,19.6,N/A,,Overcast,100,2013-03-22 04:15:00
11:35 PM,33.8,30.2,87,29.82,5.0,East,12.7,18.4,0.03,,Overcast,100,2013-03-22 04:35:00
11:55 PM,33.8,30.2,87,29.82,10.0,East,12.7,-,0.04,,Overcast,80,2013-03-22 04:55:00